Location: Chippewa Lake
(41.0698°N, 81.9010°W)
Time: 01:17:16
(UTC+00:00)

H-2A R/B - Pass Details

Date: 09 May 2021
Orbit: 573 x 598 km, 98.2° (Epoch: 24 June)

Event Time Altitude Azimuth Distance (km) Brightness Sun altitude
Rises 03:18:03 0° 13° (NNE) 2,845 7.6 -24.6°
Reaches altitude 10° 03:20:14 10° 13° (NNE) 1,936 6.6 -24.9°
Enters shadow 03:23:48 64° 15° (NNE) 661 3.7 -25.2°
